Tracking 29892 objects as of 21-Nov-2024
HD Live streaming from Space Station
objects crossing your sky now

STARLINK-32018

Track STARLINK-32018 now!
10-day predictions
STARLINK-32018 is classified as:


NORAD ID: 60105
Int'l Code: 2024-117Q
Perigee: 481.6 km
Apogee: 483.2 km
Inclination: 53.2 °
Period: 94.1 minutes
Semi major axis: 6853 km
RCS: Unknown
Launch date: June 23, 2024
Source: United States (US)
Launch site: AIR FORCE EASTERN TEST RANGE (AFETR)
Your satellite tracking list
Your tracking list is empty




NASA's NSSDC Master Catalog

Two Line Element Set (TLE):
1 60105U 24117Q   24324.57672204  .00000384  00000-0  25107-4 0  9999
2 60105  53.1586  84.0394 0001178  88.9418 271.1718 15.30195866 24169
Source of the keplerian elements: AFSPC